FW5423 Weather Reports


Display with metric or nautical units.
time (UTC)temp
F
wind
direction
speed
MPH
gust
MPH
rain 1hr
in
rain 24hr
in
rain mn
in
humidity
%
barometer
mb
20221208224025 73 181 0.0 1.0 0.00 0.01 0.01 73 1005.0
20221208223026 73 181 0.0 0.0 0.00 0.01 0.01 76 1004.9
20221208222525 73 180 0.0 0.0 0.00 0.01 0.01 81 1004.9
20221208222026 73 181 0.0 0.0 0.00 0.01 0.01 83 1004.9
20221208221531 73 180 0.0 0.0 0.00 0.01 0.01 84 1004.7
20221208221026 73 181 0.0 0.0 0.00 0.01 0.01 80 1004.7
20221208220526 73 181 0.0 0.0 0.00 0.01 0.01 78 1004.6
20221208220026 74 181 0.0 1.0 0.00 0.01 0.01 77 1004.4
20221208215525 74 181 0.0 1.0 0.00 0.01 0.01 79 1004.2
20221208215025 74 181 0.0 1.0 0.00 0.01 0.01 88 1004.2
20221208214537 74 181 0.0 1.0 0.00 0.01 0.01 85 1004.1
20221208214025 74 181 0.0 2.0 0.00 0.01 0.01 79 1003.9
20221208213017 75 181 0.0 4.0 0.00 0.01 0.01 88 1003.8
20221208212517 76 181 1.0 3.0 0.00 0.01 0.01 86 1003.8
20221208212017 77 180 0.0 1.0 0.00 0.01 0.01 83 1003.7
20221208211519 78 183 0.0 2.0 0.00 0.01 0.01 82 1003.7
20221208211021 78 183 0.0 2.0 0.00 0.01 0.01 80 1003.6
20221208210517 79 183 0.0 1.0 0.00 0.01 0.01 78 1003.6
20221208210018 79 183 0.0 1.0 0.00 0.01 0.01 77 1003.6
20221208205517 80 183 0.0 1.0 0.00 0.01 0.01 74 1003.6
20221208205017 80 183 0.0 2.0 0.00 0.01 0.01 74 1003.6
20221208204519 81 183 0.0 1.0 0.00 0.01 0.01 75 1003.5
20221208204016 80 183 0.0 2.0 0.00 0.01 0.01 72 1003.6
20221208203517 80 183 0.0 3.0 0.00 0.01 0.01 71 1003.5
20221208203019 80 183 0.0 3.0 0.00 0.01 0.01 71 1003.5
20221208202516 80 169 0.0 2.0 0.00 0.01 0.01 71 1003.5
20221208202020 80 169 0.0 2.0 0.00 0.01 0.01 71 1003.5
20221208201516 80 169 0.0 3.0 0.00 0.01 0.01 71 1003.6
20221208201015 80 169 0.0 3.0 0.00 0.01 0.01 72 1003.5
20221208200015 80 226 0.0 4.0 0.00 0.01 0.01 69 1003.5
20221208195515 80 226 0.0 4.0 0.00 0.01 0.01 72 1003.5
20221208195018 80 158 0.0 2.0 0.00 0.01 0.01 73 1003.6
20221208194513 80 180 0.0 3.0 0.00 0.01 0.01 77 1003.6
20221208194012 80 181 1.0 3.0 0.00 0.01 0.01 73 1003.6
20221208193511 80 197 0.0 2.0 0.00 0.01 0.01 77 1003.6
20221208193011 80 197 0.0 3.0 0.00 0.01 0.01 79 1003.7
20221208192510 79 193 0.0 3.0 0.00 0.01 0.01 78 1003.7
20221208192009 79 161 0.0 2.0 0.00 0.01 0.01 79 1003.7
20221208191510 78 177 0.0 3.0 0.00 0.01 0.01 79 1003.9
20221208191008 78 114 0.0 3.0 0.00 0.01 0.01 81 1003.8
20221208190011 77 137 0.0 2.0 0.00 0.01 0.01 84 1004.0
20221208185512 78 137 0.0 4.0 0.00 0.01 0.01 82 1004.0
20221208185012 78 137 0.0 4.0 0.00 0.01 0.01 79 1004.1
20221208184506 79 168 0.0 3.0 0.00 0.01 0.01 79 1004.2
20221208184009 78 34 0.0 4.0 0.00 0.01 0.01 84 1004.2
20221208183505 78 122 1.0 4.0 0.00 0.01 0.01 83 1004.2
20221208183004 77 125 1.0 3.0 0.00 0.01 0.01 83 1004.3
20221208182503 78 296 0.0 2.0 0.00 0.01 0.01 84 1004.4
20221208182003 78 247 0.0 2.0 0.00 0.01 0.01 82 1004.6
20221208181503 78 247 0.0 3.0 0.00 0.01 0.01 82 1004.6
20221208181005 79 133 0.0 2.0 0.00 0.01 0.01 81 1004.6
20221208180501 79 132 0.0 2.0 0.00 0.01 0.01 80 1004.9
20221208180002 79 132 0.0 3.0 0.00 0.01 0.01 78 1004.9
20221208175501 80 108 0.0 3.0 0.00 0.01 0.01 78 1004.9
20221208175100 80 139 0.0 4.0 0.00 0.01 0.01 76 1005.0
20221208174605 80 117 2.0 5.0 0.00 0.01 0.01 75 1005.1
20221208174100 81 58 2.0 5.0 0.00 0.01 0.01 75 1005.0
20221208173103 80 242 1.0 7.0 0.00 0.01 0.01 65 1005.1
20221208172557 80 251 2.0 8.0 0.00 0.01 0.01 61 1005.4
20221208172057 81 249 3.0 8.0 0.00 0.01 0.01 62 1005.4
20221208171559 81 193 3.0 10.0 0.00 0.01 0.01 59 1005.5
20221208171054 81 277 5.0 12.0 0.00 0.01 0.01 60 1005.6
20221208170554 81 300 7.0 12.0 0.00 0.01 0.01 62 1005.7
20221208170055 80 246 5.0 11.0 0.00 0.01 0.01 66 1005.8
20221208165550 79 256 5.0 11.0 0.00 0.01 0.01 65 1005.8
20221208165050 78 282 6.0 12.0 0.00 0.01 0.01 68 1006.0
20221208164552 79 276 7.0 13.0 0.00 0.01 0.01 65 1006.1
20221208164049 79 303 6.0 14.0 0.00 0.01 0.01 64 1006.1
20221208163056 79 274 6.0 13.0 0.00 0.01 0.01 68 1006.3
20221208162547 80 277 4.0 12.0 0.00 0.01 0.01 66 1006.3
20221208162047 80 275 3.0 15.0 0.00 0.01 0.01 64 1006.4
20221208161551 80 285 7.0 15.0 0.00 0.01 0.01 66 1006.4
20221208161047 79 287 4.0 12.0 0.00 0.01 0.01 70 1006.5
20221208160546 79 287 8.0 12.0 0.00 0.01 0.01 66 1006.6
20221208160102 80 222 5.0 13.0 0.00 0.01 0.01 68 1006.6
20221208155541 79 261 3.0 13.0 0.00 0.01 0.01 70 1006.6
20221208155043 78 276 7.0 14.0 0.00 0.01 0.01 69 1006.7
20221208154540 78 264 9.0 14.0 0.00 0.01 0.01 67 1006.8
20221208154039 78 264 8.0 14.0 0.00 0.01 0.01 68 1006.9
20221208153537 78 314 9.0 14.0 0.00 0.01 0.01 68 1007.0
20221208153046 78 250 5.0 17.0 0.00 0.01 0.01 71 1007.1
20221208152536 78 289 9.0 17.0 0.00 0.01 0.01 69 1007.1
20221208152037 78 264 5.0 15.0 0.00 0.01 0.01 69 1007.2
20221208151538 78 241 6.0 12.0 0.00 0.01 0.01 72 1007.3
20221208151033 78 262 7.0 12.0 0.00 0.01 0.01 69 1007.3
20221208150031 77 292 7.0 18.0 0.00 0.01 0.01 72 1007.5
20221208145530 77 296 10.0 18.0 0.00 0.01 0.01 70 1007.6
20221208145029 77 304 8.0 15.0 0.00 0.01 0.01 72 1007.6
20221208144528 76 279 6.0 14.0 0.00 0.01 0.01 72 1007.6
20221208144027 76 292 8.0 13.0 0.00 0.01 0.01 72 1007.7
20221208143526 76 332 8.0 13.0 0.00 0.01 0.01 72 1007.7
20221208143037 76 320 6.0 13.0 0.00 0.01 0.01 73 1007.8
20221208142559 76 349 6.0 13.0 0.00 0.01 0.01 74 1007.8
20221208142023 76 297 7.0 14.0 0.00 0.01 0.01 74 1007.8
20221208141525 75 284 9.0 15.0 0.00 0.01 0.01 71 1007.8
20221208141024 75 299 5.0 16.0 0.00 0.01 0.01 77 1007.8
20221208140020 74 299 9.0 17.0 0.00 0.01 0.01 74 1007.9
20221208135518 74 288 11.0 17.0 0.00 0.01 0.01 76 1008.0
20221208135017 74 315 7.0 14.0 0.00 0.01 0.01 73 1008.1
20221208134516 73 312 6.0 14.0 0.00 0.01 0.01 76 1008.1
20221208134015 73 289 9.0 14.0 0.00 0.01 0.01 76 1008.1
20221208133513 73 321 7.0 13.0 0.00 0.01 0.01 77 1008.1
20221208133013 73 324 9.0 13.0 0.00 0.01 0.01 76 1008.1
20221208132514 72 280 8.0 12.0 0.00 0.01 0.01 76 1008.2
20221208132011 73 286 9.0 13.0 0.00 0.01 0.01 76 1008.2
20221208131516 73 288 8.0 14.0 0.00 0.01 0.01 75 1008.3
20221208131007 73 286 8.0 13.0 0.00 0.01 0.01 76 1008.3
20221208130507 73 225 5.0 11.0 0.00 0.01 0.01 75 1008.3
20221208130005 72 265 6.0 11.0 0.00 0.01 0.01 75 1008.3
20221208125504 72 283 6.0 12.0 0.00 0.01 0.01 77 1008.3
20221208125003 71 285 8.0 13.0 0.00 0.01 0.01 77 1008.4
20221208124501 71 285 5.0 13.0 0.00 0.01 0.01 79 1008.3
20221208124100 71 286 6.0 12.0 0.00 0.01 0.01 79 1008.3
20221208123659 70 294 6.0 10.0 0.00 0.01 0.01 81 1008.4
20221208123110 70 305 7.0 10.0 0.00 0.01 0.01 81 1008.4
20221208122558 69 316 5.0 11.0 0.00 0.01 0.01 81 1008.4
20221208122058 69 256 7.0 11.0 0.00 0.01 0.01 81 1008.4
20221208121559 68 326 7.0 13.0 0.00 0.01 0.01 82 1008.4
20221208121058 68 320 7.0 13.0 0.00 0.01 0.01 84 1008.5
20221208120554 67 287 8.0 12.0 0.00 0.01 0.01 85 1008.4
20221208120052 67 297 6.0 11.0 0.00 0.01 0.01 87 1008.3
20221208115550 66 259 7.0 14.0 0.00 0.01 0.01 89 1008.3
20221208115049 66 278 9.0 13.0 0.00 0.01 0.01 88 1008.2
20221208114547 66 276 7.0 12.0 0.00 0.01 0.01 91 1008.2
20221208114047 66 285 7.0 10.0 0.00 0.01 0.01 91 1008.3
20221208113645 65 295 5.0 11.0 0.00 0.01 0.01 93 1008.1
20221208113044 65 280 8.0 12.0 0.00 0.01 0.01 92 1008.3
20221208112544 65 305 8.0 16.0 0.00 0.01 0.01 92 1008.2
20221208112040 64 287 9.0 16.0 0.00 0.01 0.01 93 1008.2
20221208111539 64 269 10.0 17.0 0.00 0.01 0.01 94 1008.2
20221208111037 63 316 11.0 16.0 0.00 0.01 0.01 93 1008.2
20221208110535 63 289 13.0 17.0 0.00 0.01 0.01 94 1008.2
20221208110035 63 288 12.0 17.0 0.00 0.01 0.01 94 1008.2
20221208105533 63 272 11.0 16.0 0.00 0.01 0.01 94 1008.1
20221208105031 62 295 11.0 18.0 0.00 0.01 0.01 94 1008.1
20221208104529 62 289 15.0 19.0 0.00 0.01 0.01 95 1008.1
20221208104028 62 282 15.0 21.0 0.00 0.01 0.01 96 1008.0
20221208103529 62 290 16.0 21.0 0.00 0.01 0.01 96 1008.0
20221208103026 62 290 15.0 21.0 0.00 0.01 0.01 96 1008.0
20221208102524 62 293 15.0 19.0 0.00 0.01 0.01 96 1008.0
20221208102023 61 310 15.0 19.0 0.00 0.01 0.01 96 1008.0
20221208101521 61 297 14.0 17.0 0.00 0.01 0.01 97 1008.1
20221208101019 61 293 13.0 17.0 0.00 0.01 0.01 97 1008.0
20221208100618 60 306 13.0 17.0 0.00 0.01 0.01 97 1008.0
20221208100029 60 295 14.0 17.0 0.00 0.01 0.01 97 1008.0
20221208095526 60 296 13.0 18.0 0.00 0.01 0.01 97 1008.0
20221208095024 60 297 14.0 18.0 0.00 0.01 0.01 97 1007.9
20221208094523 60 296 14.0 18.0 0.00 0.01 0.01 97 1008.0
20221208094021 59 297 15.0 18.0 0.00 0.01 0.01 97 1007.9
20221208093520 59 309 14.0 18.0 0.00 0.01 0.01 97 1007.9
20221208093028 59 293 14.0 18.0 0.00 0.01 0.01 97 1007.9
20221208092517 59 302 14.0 20.0 0.00 0.01 0.01 98 1007.8
20221208092016 59 302 15.0 20.0 0.00 0.01 0.01 97 1007.8
20221208091515 59 294 16.0 20.0 0.00 0.01 0.01 97 1007.7
20221208091014 59 309 16.0 19.0 0.00 0.01 0.01 97 1007.7
20221208090615 58 287 15.0 20.0 0.00 0.01 0.01 98 1007.8
20221208090003 58 359 15.0 20.0 0.00 0.01 0.01 97 1007.7
20221208085501 58 359 16.0 19.0 0.00 0.01 0.01 97 1007.7
20221208085001 58 359 16.0 19.0 0.00 0.01 0.01 97 1007.7
20221208084600 58 306 15.0 20.0 0.00 0.01 0.01 97 1007.7
20221208084059 58 316 16.0 20.0 0.00 0.01 0.01 97 1007.6
20221208083558 58 307 14.0 17.0 0.00 0.01 0.01 97 1007.6
20221208083058 58 295 14.0 18.0 0.00 0.01 0.01 97 1007.6
20221208082601 58 359 14.0 18.0 0.00 0.01 0.01 97 1007.5
20221208082056 58 316 14.0 16.0 0.00 0.01 0.01 97 1007.5
20221208081604 58 295 13.0 16.0 0.00 0.01 0.01 97 1007.4
20221208081055 58 310 13.0 16.0 0.00 0.01 0.01 97 1007.4
20221208080556 58 359 12.0 16.0 0.00 0.01 0.01 97 1007.3
20221208080059 58 359 12.0 16.0 0.00 0.01 0.01 97 1007.3
20221208075558 58 311 13.0 16.0 0.00 0.01 0.01 97 1007.2
20221208075054 58 359 13.0 15.0 0.00 0.01 0.01 97 1007.2
20221208074557 58 359 12.0 15.0 0.00 0.01 0.01 97 1007.2
20221208074052 58 307 12.0 14.0 0.00 0.01 0.01 97 1007.3
20221208073551 58 314 11.0 14.0 0.00 0.01 0.01 97 1007.2
20221208073050 58 359 11.0 14.0 0.00 0.01 0.01 97 1007.3
20221208072553 58 302 11.0 15.0 0.00 0.01 0.01 97 1007.5
20221208072049 58 359 11.0 13.0 0.00 0.01 0.01 97 1007.4
20221208071551 58 315 10.0 14.0 0.00 0.01 0.01 97 1007.5
20221208071046 58 295 9.0 12.0 0.01 0.01 0.01 97 1007.5
20221208070550 58 310 7.0 10.0 0.01 0.01 0.01 97 1007.6
20221208070052 58 359 7.0 10.0 0.01 0.01 0.01 97 1007.6
20221208065547 58 291 7.0 10.0 0.01 0.01 0.01 97 1007.5
20221208065048 58 359 7.0 10.0 0.01 0.01 0.01 97 1007.5
20221208064546 59 359 7.0 10.0 0.01 0.01 0.01 97 1007.6
20221208064050 59 359 7.0 9.0 0.01 0.01 0.01 97 1007.6
20221208063546 58 314 4.0 6.0 0.01 0.01 0.01 97 1007.6
20221208063047 58 310 4.0 6.0 0.01 0.01 0.01 97 1007.7
20221208062546 58 4 2.0 5.0 0.01 0.01 0.01 97 1007.7
20221208062048 58 322 3.0 5.0 0.01 0.01 0.01 97 1007.8
20221208061545 58 354 3.0 4.0 0.01 0.01 0.01 97 1007.7
20221208061046 58 14 2.0 4.0 0.00 0.00 0.00 97 1007.8
20221208060545 58 18 1.0 5.0 0.00 0.00 0.00 97 1007.7
20221208060045 58 18 2.0 5.0 0.00 0.00 0.00 97 1007.7
20221208055545 58 21 3.0 5.0 0.00 0.00 0.00 97 1007.7
20221208055045 58 14 2.0 5.0 0.00 0.00 0.00 97 1007.7
20221208054544 58 14 3.0 5.0 0.00 0.00 0.00 97 1007.6
20221208054045 58 30 3.0 5.0 0.00 0.00 0.00 97 1007.6
20221208053544 58 29 3.0 6.0 0.00 0.00 0.00 97 1007.7
20221208053044 58 30 3.0 7.0 0.00 0.00 0.00 97 1007.7
20221208052545 58 30 4.0 7.0 0.00 0.00 0.00 97 1007.7
20221208052042 58 44 4.0 6.0 0.00 0.00 0.00 97 1007.7
20221208051541 58 29 4.0 7.0 0.00 0.00 0.00 97 1007.8
20221208051041 58 31 4.0 7.0 0.00 0.00 0.00 97 1007.9
20221208050540 58 24 4.0 7.0 0.00 0.00 0.00 97 1007.9
20221208050038 58 33 4.0 7.0 0.00 0.00 0.00 97 1007.9
20221208045536 58 37 4.0 9.0 0.00 0.00 0.00 97 1008.0
20221208045036 59 51 5.0 9.0 0.00 0.00 0.00 97 1008.0
20221208044535 59 19 5.0 8.0 0.00 0.00 0.00 97 1008.1
20221208044033 59 31 4.0 8.0 0.00 0.00 0.00 97 1008.1
20221208043534 59 39 4.0 7.0 0.00 0.00 0.00 97 1008.2
20221208043045 59 56 3.0 7.0 0.00 0.00 0.00 97 1008.2
20221208042531 59 35 4.0 6.0 0.00 0.00 0.00 97 1008.3
20221208042032 59 249 1.0 4.0 0.00 0.00 0.00 97 1008.4
20221208041532 59 350 1.0 4.0 0.00 0.00 0.00 97 1008.4
20221208041029 59 74 1.0 4.0 0.00 0.00 0.00 97 1008.6
20221208040529 60 123 1.0 5.0 0.00 0.00 0.00 97 1008.7
20221208040029 60 45 1.0 5.0 0.00 0.00 0.00 97 1008.7
20221208035528 60 191 1.0 5.0 0.00 0.00 0.00 97 1008.8
20221208035027 60 268 0.0 4.0 0.00 0.00 0.00 97 1008.8
20221208034527 60 326 0.0 5.0 0.00 0.00 0.00 97 1009.0
20221208034025 60 359 1.0 3.0 0.00 0.00 0.00 97 1009.1
20221208033524 60 359 1.0 5.0 0.00 0.00 0.00 97 1009.1
20221208033030 60 230 0.0 5.0 0.00 0.00 0.00 97 1009.2
20221208032524 61 206 0.0 3.0 0.00 0.00 0.00 97 1009.2
20221208032027 61 61 0.0 3.0 0.00 0.00 0.00 97 1009.2
20221208031529 60 359 0.0 4.0 0.00 0.00 0.00 97 1009.3
20221208031025 61 87 1.0 4.0 0.00 0.00 0.00 97 1009.4
20221208030522 60 293 0.0 3.0 0.00 0.00 0.00 97 1009.4
20221208030036 60 293 1.0 3.0 0.00 0.00 0.00 97 1009.5
20221208025535 60 303 0.0 4.0 0.00 0.00 0.00 97 1009.5
20221208025036 61 303 0.0 6.0 0.00 0.00 0.00 97 1009.5
20221208024534 61 359 0.0 6.0 0.00 0.00 0.00 97 1009.7
20221208024035 61 141 1.0 5.0 0.00 0.00 0.00 97 1009.6
20221208023537 61 269 1.0 5.0 0.00 0.00 0.00 97 1009.6
20221208023046 61 100 0.0 4.0 0.00 0.00 0.00 97 1009.6
20221208022533 61 318 1.0 6.0 0.00 0.00 0.00 97 1009.7
20221208022032 61 359 1.0 6.0 0.00 0.00 0.00 97 1009.7
20221208021534 61 256 2.0 5.0 0.00 0.00 0.00 97 1009.8
20221208021032 61 204 2.0 8.0 0.00 0.00 0.00 97 1009.8
20221208020534 61 72 0.0 4.0 0.00 0.00 0.00 97 1009.8
20221208020023 61 145 1.0 4.0 0.00 0.00 0.00 97 1009.8
20221208015523 61 359 0.0 6.0 0.00 0.00 0.00 97 1009.9
20221208015026 61 212 2.0 6.0 0.00 0.00 0.00 97 1009.8
20221208014524 61 150 3.0 6.0 0.00 0.00 0.00 97 1009.8
20221208014025 61 85 1.0 7.0 0.00 0.00 0.00 97 1009.9
20221208013526 61 260 1.0 7.0 0.00 0.00 0.00 97 1010.1
20221208013024 61 260 1.0 5.0 0.00 0.00 0.00 97 1010.1
20221208012522 61 188 1.0 5.0 0.00 0.00 0.00 97 1010.0
20221208012027 61 189 2.0 5.0 0.00 0.00 0.00 97 1010.0
20221208011521 61 359 0.0 8.0 0.00 0.00 0.00 97 1010.0
20221208011022 61 229 3.0 8.0 0.00 0.00 0.00 97 1010.0
20221208010623 61 73 1.0 9.0 0.00 0.00 0.00 97 1009.8
20221208010048 61 181 1.0 9.0 0.00 0.00 0.00 97 1009.8
20221208005548 61 46 4.0 9.0 0.00 0.00 0.00 97 1009.7
20221208005049 62 243 2.0 9.0 0.00 0.00 0.00 97 1009.7
20221208004549 62 300 2.0 8.0 0.00 0.00 0.00 97 1009.8
20221208004050 62 158 3.0 7.0 0.00 0.00 0.00 97 1009.7
20221208003548 62 245 0.0 5.0 0.00 0.00 0.00 97 1009.8
20221208003056 62 229 2.0 7.0 0.00 0.00 0.00 97 1009.7
20221208002547 62 212 1.0 6.0 0.00 0.00 0.00 97 1009.6
20221208002047 62 234 1.0 5.0 0.00 0.00 0.00 97 1009.5
20221208001547 62 359 1.0 5.0 0.00 0.00 0.00 97 1009.4
20221208001050 62 275 1.0 6.0 0.00 0.00 0.00 97 1009.4
20221208000650 62 125 0.0 5.0 0.00 0.00 0.00 97 1009.4
20221208000000 62 251 1.0 7.0 0.00 0.00 0.00 97 1009.4
20221207235502 62 246 1.0 7.0 0.00 0.02 0.00 97 1009.4
20221207235002 62 108 2.0 7.0 0.00 0.02 0.00 97 1009.3
20221207234501 62 231 2.0 7.0 0.00 0.02 0.00 97 1009.3
20221207234001 62 97 1.0 12.0 0.00 0.02 0.00 97 1009.1
20221207233601 62 210 2.0 12.0 0.00 0.02 0.00 97 1009.1
20221207233106 62 128 1.0 7.0 0.00 0.02 0.00 97 1009.2
20221207232504 62 233 1.0 6.0 0.00 0.02 0.00 97 1009.0
20221207232100 62 168 1.0 5.0 0.00 0.02 0.00 97 1009.0
20221207231601 63 93 1.0 5.0 0.00 0.02 0.00 97 1009.0
20221207231100 63 26 2.0 9.0 0.00 0.02 0.00 97 1009.0
20221207230600 63 359 3.0 8.0 0.00 0.02 0.00 97 1008.9
20221207230046 63 81 3.0 8.0 0.00 0.02 0.00 97 1008.9
20221207225546 63 81 2.0 10.0 0.00 0.06 0.00 97 1008.8
20221207225047 63 44 1.0 10.0 0.00 0.06 0.00 97 1008.9
20221207224546 63 204 2.0 9.0 0.00 0.06 0.00 97 1008.9